,,,PA_Meas_PMT16A,,PR_Meas_QMR101_102,,RH_Meas_QMH101,,SR_Meas_QMS101,,TA_Meas_QMH101,,GenWind,,GenWind,
date,time,status,PA,status,PR,status,RH,status,SR,status,TA,status,DirAvg,status,SpdAvg,
2010-10-15, 00:00:05,VALID,999.111,VALID,0,VALID,86.3749,VALID,0,VALID,24.9308,VALID,137,VALID,0.210547,
2010-10-15, 00:01:05,VALID,999.107,VALID,0,VALID,86.3826,VALID,0,VALID,24.9308,VALID,137,VALID,0.233203,
2010-10-15, 00:02:05,VALID,999.083,VALID,0,VALID,86.4512,VALID,0,VALID,24.8898,VALID,137,VALID,0.224609,
2010-10-15, 00:03:05,VALID,999.049,VALID,0,VALID,86.4589,VALID,0,VALID,24.8703,VALID,154,VALID,0.629687,
2010-10-15, 00:04:05,VALID,999.04,VALID,0,VALID,86.5809,VALID,0,VALID,24.8722,VALID,154,VALID,0.431641,
2010-10-15, 00:05:05,VALID,999.012,VALID,0,VALID,86.6725,VALID,0,VALID,24.8527,VALID,154,VALID,0.314063,
2010-10-15, 00:06:05,VALID,999.016,VALID,0,VALID,86.7259,VALID,0,VALID,24.8117,VALID,154,VALID,0.308594,
2010-10-15, 00:07:05,VALID,999.026,VALID,0,VALID,86.7564,VALID,0,VALID,24.8332,VALID,154,VALID,0.435937,
2010-10-15, 00:08:05,VALID,998.979,VALID,0,VALID,86.764,VALID,0.112286,VALID,24.8313,VALID,154,VALID,0.332031,
2010-10-15, 00:09:05,VALID,998.956,VALID,0,VALID,86.6801,VALID,0.112286,VALID,24.8099,VALID,154,VALID,0.255859,
2010-10-15, 00:10:05,VALID,998.99,VALID,0,VALID,86.5962,VALID,0,VALID,24.8508,VALID,136,VALID,0.786719,
2010-10-15, 00:11:05,VALID,998.971,VALID,0,VALID,86.4589,VALID,0,VALID,24.8703,VALID,136,VALID,0.748047,
2010-10-15, 00:12:05,VALID,998.953,VALID,0,VALID,86.3063,VALID,0.112286,VALID,24.9093,VALID,136,VALID,0.597266,
2010-10-15, 00:13:05,VALID,998.975,VALID,0,VALID,86.1308,VALID,0,VALID,24.9289,VALID,136,VALID,0.348828,
2010-10-15, 00:14:05,VALID,998.984,VALID,0,VALID,85.818,VALID,0,VALID,24.9289,VALID,152,VALID,0.633203,
2010-10-15, 00:15:05,VALID,998.945,VALID,0,VALID,85.9248,VALID,0,VALID,24.9074,VALID,147,VALID,0.716016,
2010-10-15, 00:16:05,VALID,998.985,VALID,0,VALID,85.9858,VALID,0.112286,VALID,24.9484,VALID,145,VALID,0.378516,
2010-10-15, 00:17:05,VALID,998.969,VALID,0,VALID,85.9934,VALID,0.112286,VALID,24.927,VALID,145,VALID,0.550391,
2010-10-15, 00:18:05,VALID,998.932,VALID,0,VALID,86.0163,VALID,0.112286,VALID,24.927,VALID,145,VALID,0.675,
2010-10-15, 00:19:05,VALID,998.933,VALID,0,VALID,86.0011,VALID,0,VALID,24.9679,VALID,169,VALID,0.664453,
2010-10-15, 00:20:05,VALID,998.922,VALID,0,VALID,85.8561,VALID,0.112286,VALID,24.9465,VALID,169,VALID,0.479688,
2010-10-15, 00:21:05,VALID,998.85,VALID,0,VALID,85.7798,VALID,0,VALID,24.9679,VALID,169,VALID,0.617578,
2010-10-15, 00:22:05,VALID,998.825,VALID,0,VALID,85.8103,VALID,0,VALID,24.9465,VALID,169,VALID,0.895312,
2010-10-15, 00:23:05,VALID,998.819,VALID,0,VALID,85.8637,VALID,0,VALID,24.9484,VALID,165,VALID,0.888672,
2010-10-15, 00:24:05,VALID,998.817,VALID,0,VALID,85.7569,VALID,0.112286,VALID,24.9484,VALID,171,VALID,1.03789,
2010-10-15, 00:25:05,VALID,998.782,VALID,0,VALID,85.9172,VALID,0,VALID,24.9484,VALID,162,VALID,0.980859,
2010-10-15, 00:26:05,VALID,998.805,VALID,0,VALID,85.9172,VALID,0,VALID,24.9484,VALID,157,VALID,1.21602,
2010-10-15, 00:27:05,VALID,998.792,VALID,0,VALID,85.8256,VALID,0,VALID,24.966,VALID,162,VALID,0.900781,
2010-10-15, 00:28:05,VALID,998.824,VALID,0,VALID,85.7951,VALID,0.112286,VALID,24.9679,VALID,162,VALID,0.759766,
2010-10-15, 00:29:05,VALID,998.83,VALID,0,VALID,85.7493,VALID,0,VALID,24.9679,VALID,163,VALID,0.825781,
2010-10-15, 00:30:05,VALID,998.84,VALID,0,VALID,85.7798,VALID,0,VALID,24.9679,VALID,179,VALID,1.52773,
2010-10-15, 00:31:05,VALID,998.805,VALID,0,VALID,85.6425,VALID,0,VALID,24.9855,VALID,171,VALID,1.0457,
2010-10-15, 00:32:05,VALID,998.822,VALID,0,VALID,85.5204,VALID,0,VALID,25.0069,VALID,184,VALID,0.955078,
2010-10-15, 00:33:05,VALID,998.837,VALID,0,VALID,85.4441,VALID,0.112286,VALID,25.0265,VALID,154,VALID,1.02578,
2010-10-15, 00:34:05,VALID,998.809,VALID,0,VALID,85.4517,VALID,0,VALID,25.0069,VALID,161,VALID,1.01484,
2010-10-15, 00:35:05,VALID,998.796,VALID,0,VALID,85.4823,VALID,0,VALID,24.9874,VALID,162,VALID,0.7875,
2010-10-15, 00:36:05,VALID,998.823,VALID,0,VALID,85.5357,VALID,0,VALID,24.9874,VALID,173,VALID,1.04336,
2010-10-15, 00:37:05,VALID,998.824,VALID,0,VALID,85.4899,VALID,0,VALID,24.9874,VALID,171,VALID,0.973828,
2010-10-15, 00:38:05,VALID,998.781,VALID,0,VALID,85.3907,VALID,0,VALID,24.9874,VALID,167,VALID,0.833203,
2010-10-15, 00:39:05,VALID,998.794,VALID,0,VALID,85.3449,VALID,0.112286,VALID,24.9679,VALID,141,VALID,1.0168,
2010-10-15, 00:40:05,VALID,998.747,VALID,0,VALID,85.3907,VALID,0,VALID,24.9679,VALID,141,VALID,0.951953,
2010-10-15, 00:41:05,VALID,998.74,VALID,0,VALID,85.4975,VALID,0.112286,VALID,24.9484,VALID,125,VALID,0.818359,
2010-10-15, 00:42:05,VALID,998.685,VALID,0,VALID,85.5891,VALID,0,VALID,24.9484,VALID,115,VALID,0.830859,
2010-10-15, 00:43:05,VALID,998.641,VALID,0,VALID,85.6425,VALID,0.112286,VALID,24.8898,VALID,79,VALID,0.963672,
2010-10-15, 00:44:05,VALID,998.634,VALID,0,VALID,85.9782,VALID,0.112286,VALID,24.8508,VALID,77,VALID,1.1375,
2010-10-15, 00:45:05,VALID,998.632,VALID,0,VALID,86.1384,VALID,0.112286,VALID,24.7903,VALID,72,VALID,1.02617,
2010-10-15, 00:46:05,VALID,998.605,VALID,0,VALID,86.3902,VALID,0,VALID,24.7532,VALID,67,VALID,0.734375,
2010-10-15, 00:47:05,VALID,998.639,VALID,0,VALID,86.5351,VALID,0,VALID,24.6733,VALID,77,VALID,0.384766,
2010-10-15, 00:48:05,VALID,998.595,VALID,0,VALID,86.7564,VALID,0.112286,VALID,24.6147,VALID,142,VALID,0.397266,
2010-10-15, 00:49:05,VALID,998.555,VALID,0,VALID,86.9014,VALID,0.112286,VALID,24.5562,VALID,159,VALID,0.155078,
2010-10-15, 00:50:05,VALID,998.578,VALID,0,VALID,87.321,VALID,0.112286,VALID,24.5385,VALID,112,VALID,0.440625,
2010-10-15, 00:51:05,VALID,998.549,VALID,0,VALID,87.5804,VALID,0,VALID,24.4995,VALID,93,VALID,0.251563,
2010-10-15, 00:52:05,VALID,998.578,VALID,0,VALID,87.8703,VALID,0.112286,VALID,24.4995,VALID,76,VALID,0.635547,
2010-10-15, 00:53:05,VALID,998.551,VALID,0,VALID,88,VALID,0,VALID,24.48,VALID,98,VALID,1.12812,
2010-10-15, 00:54:05,VALID,998.592,VALID,0,VALID,87.9924,VALID,0,VALID,24.48,VALID,95,VALID,0.454688,
2010-10-15, 00:55:05,VALID,998.567,VALID,0,VALID,87.9924,VALID,0,VALID,24.48,VALID,95,VALID,0.439844,
2010-10-15, 00:56:05,VALID,998.598,VALID,0,VALID,87.9848,VALID,0,VALID,24.4604,VALID,95,VALID,0.0316406,
2010-10-15, 00:57:05,VALID,998.624,VALID,0,VALID,87.9543,VALID,0,VALID,24.4604,VALID,95,VALID,0.187891,
2010-10-15, 00:58:05,VALID,998.612,VALID,0,VALID,87.9161,VALID,0,VALID,24.4428,VALID,95,VALID,0.025,
2010-10-15, 00:59:05,VALID,998.639,VALID,0,VALID,88.0534,VALID,0,VALID,24.4233,VALID,95,VALID,0.0894531,
2010-10-15, 01:00:05,VALID,998.587,VALID,0,VALID,88.1603,VALID,0,VALID,24.3824,VALID,95,VALID,0.195703,
2010-10-15, 01:01:05,VALID,998.584,VALID,0,VALID,88.206,VALID,0,VALID,24.3629,VALID,95,VALID,0.502344,
2010-10-15, 01:02:05,VALID,998.599,VALID,0,VALID,88.1297,VALID,0,VALID,24.3433,VALID,96,VALID,0.500391,
2010-10-15, 01:03:05,VALID,998.565,VALID,0,VALID,88.1221,VALID,0,VALID,24.3629,VALID,96,VALID,0.506641,
2010-10-15, 01:04:05,VALID,998.587,VALID,0,VALID,88.1832,VALID,0,VALID,24.3433,VALID,96,VALID,0.321094,
2010-10-15, 01:05:05,VALID,998.557,VALID,0,VALID,88.2289,VALID,0,VALID,24.3629,VALID,96,VALID,0.229297,
2010-10-15, 01:06:05,VALID,998.496,VALID,0,VALID,88.1832,VALID,0,VALID,24.3433,VALID,96,VALID,0.147266,
2010-10-15, 01:07:05,VALID,998.505,VALID,0,VALID,88.1297,VALID,0,VALID,24.3238,VALID,96,VALID,0.0683594,
2010-10-15, 01:08:05,VALID,998.488,VALID,0,VALID,88.1221,VALID,0,VALID,24.3238,VALID,96,VALID,0.155078,
2010-10-15, 01:09:05,VALID,998.473,VALID,0,VALID,88.0306,VALID,0,VALID,24.2848,VALID,96,VALID,0,
2010-10-15, 01:10:05,VALID,998.423,VALID,0,VALID,88.1526,VALID,0,VALID,24.2848,VALID,96,VALID,0.0992187,
2010-10-15, 01:11:05,VALID,998.399,VALID,0,VALID,88.2137,VALID,0,VALID,24.2848,VALID,96,VALID,0.127734,
2010-10-15, 01:12:05,VALID,998.364,VALID,0,VALID,88.2442,VALID,0,VALID,24.3062,VALID,96,VALID,0.213672,
2010-10-15, 01:13:05,VALID,998.323,VALID,0,VALID,88.1526,VALID,0,VALID,24.2653,VALID,116,VALID,0.720312,
2010-10-15, 01:14:05,VALID,998.316,VALID,0,VALID,87.7635,VALID,0,VALID,24.2653,VALID,122,VALID,0.555078,
2010-10-15, 01:15:05,VALID,998.237,VALID,0,VALID,87.733,VALID,0,VALID,24.3043,VALID,123,VALID,0.854297,
2010-10-15, 01:16:05,VALID,998.202,VALID,0,VALID,87.5575,VALID,0,VALID,24.3433,VALID,137,VALID,0.889063,
2010-10-15, 01:17:05,VALID,998.2,VALID,0,VALID,87.2142,VALID,0,VALID,24.4409,VALID,149,VALID,1.30313,
2010-10-15, 01:18:05,VALID,998.179,VALID,0,VALID,86.6649,VALID,0,VALID,24.4995,VALID,142,VALID,0.710938,
2010-10-15, 01:19:05,VALID,998.186,VALID,0,VALID,86.6877,VALID,0,VALID,24.5385,VALID,144,VALID,0.551562,
2010-10-15, 01:20:05,VALID,998.225,VALID,0,VALID,86.5275,VALID,0,VALID,24.558,VALID,144,VALID,0.610547,
2010-10-15, 01:21:05,VALID,998.179,VALID,0,VALID,86.5046,VALID,0,VALID,24.5971,VALID,144,VALID,0.348828,
2010-10-15, 01:22:05,VALID,998.177,VALID,0,VALID,86.3597,VALID,0,VALID,24.5971,VALID,143,VALID,0.701563,
2010-10-15, 01:23:05,VALID,998.148,VALID,0,VALID,86.1308,VALID,0,VALID,24.6147,VALID,131,VALID,0.862891,
2010-10-15, 01:24:05,VALID,998.146,VALID,0,VALID,86.0087,VALID,0,VALID,24.6166,VALID,129,VALID,0.726172,
2010-10-15, 01:25:05,VALID,998.128,VALID,0,VALID,86.0316,VALID,0,VALID,24.5971,VALID,121,VALID,1.04766,
2010-10-15, 01:26:05,VALID,998.132,VALID,0,VALID,86.2376,VALID,0,VALID,24.5989,VALID,121,VALID,1.12461,
2010-10-15, 01:27:05,VALID,998.181,VALID,0,VALID,86.2681,VALID,0,VALID,24.558,VALID,115,VALID,0.370703,
2010-10-15, 01:28:05,VALID,998.218,VALID,0,VALID,86.3139,VALID,0,VALID,24.519,VALID,115,VALID,0.318359,
2010-10-15, 01:29:05,VALID,998.224,VALID,0,VALID,86.2605,VALID,0,VALID,24.48,VALID,72,VALID,0.476563,
2010-10-15, 01:30:05,VALID,998.224,VALID,0,VALID,86.7335,VALID,0,VALID,24.4214,VALID,72,VALID,0.482422,
2010-10-15, 01:31:05,VALID,998.211,VALID,0,VALID,86.6954,VALID,0,VALID,24.3629,VALID,72,VALID,0.333203,
2010-10-15, 01:32:05,VALID,998.213,VALID,0,VALID,87.1913,VALID,0,VALID,24.3043,VALID,72,VALID,0.306641,
2010-10-15, 01:33:05,VALID,998.187,VALID,0,VALID,87.4354,VALID,0,VALID,24.2848,VALID,72,VALID,0.266406,
2010-10-15, 01:34:05,VALID,998.212,VALID,0,VALID,87.6186,VALID,0,VALID,24.2653,VALID,72,VALID,0.299609,
2010-10-15, 01:35:05,VALID,998.222,VALID,0,VALID,87.9161,VALID,0.112286,VALID,24.2458,VALID,26,VALID,0.671094,
2010-10-15, 01:36:05,VALID,998.229,VALID,0,VALID,88.145,VALID,0,VALID,24.2263,VALID,21,VALID,0.339844,
2010-10-15, 01:37:04,VALID,998.238,VALID,0,VALID,87.9543,VALID,0,VALID,24.2067,VALID,21,VALID,0.328516,
2010-10-15, 01:38:04,VALID,998.272,VALID,0,VALID,88.1221,VALID,0,VALID,24.1872,VALID,21,VALID,0.418359,
2010-10-15, 01:39:04,VALID,998.256,VALID,0,VALID,88.2671,VALID,0,VALID,24.1677,VALID,21,VALID,0.454688,
2010-10-15, 01:40:04,VALID,998.238,VALID,0,VALID,88.1145,VALID,0.112286,VALID,24.1269,VALID,17,VALID,0.321094,
2010-10-15, 01:41:04,VALID,998.267,VALID,0,VALID,88.4197,VALID,0,VALID,24.0897,VALID,10,VALID,0.6125,
2010-10-15, 01:42:04,VALID,998.273,VALID,0,VALID,88.8088,VALID,0,VALID,24.0897,VALID,10,VALID,0.5125,
2010-10-15, 01:43:04,VALID,998.262,VALID,0,VALID,88.8698,VALID,0,VALID,24.072,VALID,10,VALID,0.575391,
2010-10-15, 01:44:04,VALID,998.289,VALID,0,VALID,89.1445,VALID,0,VALID,24.0506,VALID,10,VALID,0.512891,
2010-10-15, 01:45:04,VALID,998.286,VALID,0,VALID,89.3123,VALID,0,VALID,24.0506,VALID,10,VALID,0.475781,
2010-10-15, 01:46:04,VALID,998.326,VALID,0,VALID,89.3428,VALID,0.112286,VALID,24.0311,VALID,10,VALID,0.394531,
2010-10-15, 01:47:04,VALID,998.332,VALID,0,VALID,89.5183,VALID,0,VALID,24.0311,VALID,10,VALID,0.379297,
2010-10-15, 01:48:04,VALID,998.346,VALID,0,VALID,89.5641,VALID,0,VALID,24.0311,VALID,10,VALID,0.166016,
2010-10-15, 01:49:04,VALID,998.324,VALID,0,VALID,89.6251,VALID,0.112286,VALID,24.0311,VALID,10,VALID,0.170312,
2010-10-15, 01:50:04,VALID,998.353,VALID,0,VALID,89.6862,VALID,0,VALID,24.0506,VALID,10,VALID,0.122656,
2010-10-15, 01:51:04,VALID,998.386,VALID,0,VALID,89.6328,VALID,0,VALID,24.0506,VALID,10,VALID,0,
2010-10-15, 01:52:04,VALID,998.391,VALID,0,VALID,89.6023,VALID,0,VALID,24.0311,VALID,10,VALID,0,
2010-10-15, 01:53:04,VALID,998.402,VALID,0,VALID,89.6328,VALID,0.112286,VALID,24.0506,VALID,10,VALID,0.0167969,
2010-10-15, 01:54:04,VALID,998.4,VALID,0,VALID,89.5946,VALID,0,VALID,24.0506,VALID,10,VALID,0.374219,
2010-10-15, 01:55:04,VALID,998.422,VALID,0,VALID,89.648,VALID,0,VALID,24.0525,VALID,10,VALID,0.596094,
2010-10-15, 01:56:04,VALID,998.425,VALID,0,VALID,89.793,VALID,0,VALID,24.0116,VALID,10,VALID,0.24375,
2010-10-15, 01:57:04,VALID,998.372,VALID,0,VALID,89.7549,VALID,0.112286,VALID,24.0116,VALID,10,VALID,0.138672,
2010-10-15, 01:58:04,VALID,998.37,VALID,0,VALID,89.6786,VALID,0,VALID,24.0134,VALID,10,VALID,0.015625,
2010-10-15, 01:59:04,VALID,998.357,VALID,0,VALID,89.4497,VALID,0,VALID,23.9726,VALID,132,VALID,0.542578,
2010-10-15, 02:00:04,VALID,998.374,VALID,0,VALID,88.8317,VALID,0,VALID,23.9726,VALID,128,VALID,0.812891,
2010-10-15, 02:01:04,VALID,998.401,VALID,0,VALID,88.4578,VALID,0,VALID,24.0116,VALID,136,VALID,1.05391,
2010-10-15, 02:02:04,VALID,998.402,VALID,0,VALID,87.9466,VALID,0.112286,VALID,24.1287,VALID,151,VALID,0.819141,
2010-10-15, 02:03:04,VALID,998.398,VALID,0,VALID,87.4812,VALID,0,VALID,24.2067,VALID,147,VALID,1.35156,
2010-10-15, 02:04:04,VALID,998.376,VALID,0,VALID,86.97,VALID,0.112286,VALID,24.3238,VALID,154,VALID,0.746094,
2010-10-15, 02:05:04,VALID,998.388,VALID,0,VALID,86.5733,VALID,0,VALID,24.3824,VALID,145,VALID,0.716016,
2010-10-15, 02:06:04,VALID,998.385,VALID,0,VALID,86.4512,VALID,0,VALID,24.4019,VALID,129,VALID,0.964844,
2010-10-15, 02:07:04,VALID,998.391,VALID,0,VALID,86.4131,VALID,0,VALID,24.4409,VALID,128,VALID,0.636719,
2010-10-15, 02:08:04,VALID,998.433,VALID,0,VALID,86.1918,VALID,0,VALID,24.48,VALID,128,VALID,0.517969,
2010-10-15, 02:09:04,VALID,998.452,VALID,0,VALID,85.9019,VALID,0,VALID,24.5385,VALID,128,VALID,0.574609,
2010-10-15, 02:10:04,VALID,998.486,VALID,0,VALID,85.7722,VALID,0.112286,VALID,24.558,VALID,113,VALID,0.523047,
2010-10-15, 02:11:04,VALID,998.506,VALID,0,VALID,85.6272,VALID,0,VALID,24.5794,VALID,103,VALID,0.69375,
2010-10-15, 02:12:04,VALID,998.524,VALID,0,VALID,85.734,VALID,0,VALID,24.558,VALID,96,VALID,0.561328,
2010-10-15, 02:13:04,VALID,998.548,VALID,0,VALID,85.8027,VALID,0,VALID,24.5794,VALID,96,VALID,0.512109,
2010-10-15, 02:14:04,VALID,998.596,VALID,0,VALID,85.9095,VALID,0,VALID,24.5385,VALID,96,VALID,0.285156,
2010-10-15, 02:15:04,VALID,998.586,VALID,0,VALID,85.9477,VALID,0,VALID,24.4995,VALID,96,VALID,0.269531,
2010-10-15, 02:16:04,VALID,998.632,VALID,0,VALID,86.1994,VALID,0,VALID,24.4214,VALID,96,VALID,0.296484,
2010-10-15, 02:17:04,VALID,998.618,VALID,0,VALID,86.7106,VALID,0.112286,VALID,24.3433,VALID,96,VALID,0.232812,
2010-10-15, 02:18:04,VALID,998.633,VALID,0,VALID,87.1608,VALID,0,VALID,24.3238,VALID,96,VALID,0.251563,
2010-10-15, 02:19:04,VALID,998.652,VALID,0,VALID,87.4889,VALID,0,VALID,24.2263,VALID,39,VALID,0.707812,
2010-10-15, 02:20:04,VALID,998.639,VALID,0,VALID,88.1603,VALID,0.112286,VALID,24.1677,VALID,18,VALID,0.700391,
2010-10-15, 02:21:04,VALID,998.659,VALID,0,VALID,88.7783,VALID,0,VALID,24.0701,VALID,13,VALID,0.536719,
2010-10-15, 02:22:04,VALID,998.706,VALID,0,VALID,89.2742,VALID,0.112286,VALID,24.0116,VALID,13,VALID,0.632813,
2010-10-15, 02:23:04,VALID,998.727,VALID,0,VALID,89.7701,VALID,0,VALID,23.9921,VALID,354,VALID,0.617578,
2010-10-15, 02:24:04,VALID,998.755,VALID,0,VALID,90.06,VALID,0,VALID,23.9726,VALID,354,VALID,0.422656,
2010-10-15, 02:25:04,VALID,998.757,VALID,0,VALID,90.1363,VALID,0,VALID,23.9744,VALID,354,VALID,0.217969,
2010-10-15, 02:26:04,VALID,998.785,VALID,0,VALID,90.144,VALID,0,VALID,23.9744,VALID,354,VALID,0.363672,
2010-10-15, 02:27:04,VALID,998.835,VALID,0,VALID,90.2126,VALID,0,VALID,23.9354,VALID,354,VALID,0.466016,
2010-10-15, 02:28:04,VALID,998.869,VALID,0,VALID,90.3805,VALID,0,VALID,23.9159,VALID,354,VALID,0.564453,
2010-10-15, 02:29:04,VALID,998.903,VALID,0,VALID,90.5254,VALID,0,VALID,23.9159,VALID,354,VALID,0.675391,
2010-10-15, 02:30:04,VALID,998.921,VALID,0,VALID,90.5788,VALID,0,VALID,23.8945,VALID,326,VALID,0.582031,
2010-10-15, 02:31:04,VALID,998.931,VALID,0,VALID,90.6399,VALID,0,VALID,23.9354,VALID,314,VALID,0.766406,
2010-10-15, 02:32:04,VALID,998.941,VALID,0,VALID,90.6094,VALID,0,VALID,23.9354,VALID,301,VALID,0.763672,
2010-10-15, 02:33:04,VALID,998.914,VALID,0,VALID,90.5331,VALID,0,VALID,23.9549,VALID,301,VALID,0.580469,
2010-10-15, 02:34:04,VALID,998.907,VALID,0,VALID,90.4644,VALID,0,VALID,23.9744,VALID,300,VALID,0.363281,
2010-10-15, 02:35:04,VALID,998.86,VALID,0,VALID,90.411,VALID,0,VALID,23.9939,VALID,300,VALID,0.236719,
2010-10-15, 02:36:04,VALID,998.89,VALID,0,VALID,90.3957,VALID,0,VALID,23.9939,VALID,300,VALID,0.290234,
2010-10-15, 02:37:04,VALID,998.89,VALID,0,VALID,90.3957,VALID,0,VALID,24.0134,VALID,300,VALID,0.357422,
2010-10-15, 02:38:04,VALID,998.879,VALID,0,VALID,90.3881,VALID,0,VALID,24.0134,VALID,300,VALID,0.312891,
2010-10-15, 02:39:04,VALID,998.897,VALID,0,VALID,90.3576,VALID,0,VALID,24.0329,VALID,300,VALID,0.167969,
2010-10-15, 02:40:04,VALID,998.917,VALID,0,VALID,90.3652,VALID,0,VALID,24.0134,VALID,300,VALID,0.100391,
2010-10-15, 02:41:04,VALID,998.93,VALID,0,VALID,90.3652,VALID,0,VALID,24.0329,VALID,300,VALID,0.203906,
2010-10-15, 02:42:04,VALID,998.927,VALID,0,VALID,90.3805,VALID,0,VALID,24.0134,VALID,300,VALID,0.151562,
2010-10-15, 02:43:04,VALID,998.929,VALID,0,VALID,90.4034,VALID,0,VALID,23.9921,VALID,300,VALID,0.221484,
2010-10-15, 02:44:04,VALID,998.93,VALID,0,VALID,90.4034,VALID,0,VALID,24.0134,VALID,300,VALID,0.210547,
2010-10-15, 02:45:04,VALID,998.929,VALID,0,VALID,90.3957,VALID,0,VALID,24.0329,VALID,300,VALID,0.371094,
2010-10-15, 02:46:04,VALID,998.954,VALID,0,VALID,90.4568,VALID,0,VALID,24.0134,VALID,300,VALID,0.257031,
2010-10-15, 02:47:04,VALID,998.963,VALID,0,VALID,90.4949,VALID,0,VALID,23.9939,VALID,300,VALID,0.19375,
2010-10-15, 02:48:04,VALID,998.956,VALID,0,VALID,90.556,VALID,0,VALID,23.9744,VALID,300,VALID,0,
2010-10-15, 02:49:04,VALID,998.953,VALID,0,VALID,90.6094,VALID,0,VALID,23.9744,VALID,300,VALID,0,
2010-10-15, 02:50:04,VALID,998.954,VALID,0,VALID,90.6475,VALID,0,VALID,23.9549,VALID,300,VALID,0.139062,
2010-10-15, 02:51:04,VALID,998.933,VALID,0,VALID,90.7162,VALID,0,VALID,23.9939,VALID,300,VALID,0.385156,
2010-10-15, 02:52:04,VALID,998.954,VALID,0,VALID,90.6933,VALID,0,VALID,24.0134,VALID,300,VALID,0.407813,
2010-10-15, 02:53:04,VALID,998.927,VALID,0,VALID,90.6017,VALID,0,VALID,24.0116,VALID,300,VALID,0.422266,
2010-10-15, 02:54:04,VALID,998.965,VALID,0,VALID,90.4949,VALID,0,VALID,24.0506,VALID,278,VALID,0.645703,
2010-10-15, 02:55:04,VALID,998.936,VALID,0,VALID,90.3805,VALID,0.112286,VALID,24.0897,VALID,276,VALID,0.479688,
2010-10-15, 02:56:04,VALID,998.975,VALID,0,VALID,90.2737,VALID,0,VALID,24.0897,VALID,288,VALID,0.719141,
2010-10-15, 02:57:04,VALID,998.975,VALID,0,VALID,90.2584,VALID,0.112286,VALID,24.0701,VALID,293,VALID,0.997266,
2010-10-15, 02:58:04,VALID,999.013,VALID,0,VALID,90.266,VALID,0,VALID,24.0897,VALID,296,VALID,0.886719,
2010-10-15, 02:59:04,VALID,999.022,VALID,0,VALID,90.3347,VALID,0.112286,VALID,24.0897,VALID,296,VALID,1.00625,
2010-10-15, 03:00:04,VALID,999.098,VALID,0,VALID,90.3957,VALID,0,VALID,24.0701,VALID,296,VALID,1.18711,
2010-10-15, 03:01:04,VALID,999.201,VALID,0,VALID,90.5483,VALID,0,VALID,24.0897,VALID,289,VALID,1.89141,
2010-10-15, 03:02:04,VALID,999.417,VALID,0,VALID,90.8001,VALID,0,VALID,24.1092,VALID,292,VALID,2.05625,
2010-10-15, 03:03:04,VALID,999.411,VALID,0,VALID,90.8383,VALID,0,VALID,24.0897,VALID,295,VALID,1.98633,
2010-10-15, 03:04:04,VALID,999.351,VALID,0,VALID,90.6704,VALID,0.112286,VALID,24.0897,VALID,261,VALID,1.65977,
2010-10-15, 03:05:04,VALID,999.364,VALID,0,VALID,89.7625,VALID,0.112286,VALID,24.1287,VALID,241,VALID,1.35039,
2010-10-15, 03:06:04,VALID,999.34,VALID,0,VALID,87.4507,VALID,0,VALID,24.2458,VALID,296,VALID,1.38008,
2010-10-15, 03:07:04,VALID,999.317,VALID,0,VALID,85.5967,VALID,0,VALID,24.283,VALID,300,VALID,1.68359,
2010-10-15, 03:08:04,VALID,999.327,VALID,0,VALID,84.5667,VALID,0,VALID,24.3647,VALID,309,VALID,1.4293,
2010-10-15, 03:09:04,VALID,999.342,VALID,0,VALID,83.8343,VALID,0,VALID,24.4037,VALID,340,VALID,0.830859,
2010-10-15, 03:10:04,VALID,999.301,VALID,0,VALID,82.7585,VALID,0,VALID,24.4623,VALID,243,VALID,1.48164,
2010-10-15, 03:11:04,VALID,999.398,VALID,0,VALID,82.2549,VALID,0,VALID,24.5209,VALID,286,VALID,0.828516,
2010-10-15, 03:12:04,VALID,999.452,VALID,0,VALID,82.1023,VALID,0,VALID,24.5404,VALID,286,VALID,0.961719,
2010-10-15, 03:13:04,VALID,999.489,VALID,0,VALID,81.0952,VALID,0,VALID,24.5013,VALID,313,VALID,2.13945,
2010-10-15, 03:14:04,VALID,999.556,VALID,0,VALID,80.0881,VALID,0,VALID,24.5013,VALID,282,VALID,1.67695,
2010-10-15, 03:15:04,VALID,999.585,VALID,0,VALID,80.4696,VALID,0,VALID,24.5209,VALID,318,VALID,2.67227,
2010-10-15, 03:16:04,VALID,999.594,VALID,0,VALID,80.3094,VALID,0,VALID,24.48,VALID,272,VALID,2.52187,
2010-10-15, 03:17:04,VALID,999.628,VALID,0,VALID,80.4925,VALID,0,VALID,24.4818,VALID,311,VALID,2.41289,
2010-10-15, 03:18:04,VALID,999.66,VALID,0,VALID,80.7977,VALID,0,VALID,24.4623,VALID,333,VALID,2.16133,
2010-10-15, 03:19:04,VALID,999.691,VALID,0,VALID,81.1029,VALID,0,VALID,24.4019,VALID,272,VALID,1.65156,
2010-10-15, 03:20:04,VALID,999.666,VALID,0,VALID,80.9884,VALID,0,VALID,24.4037,VALID,317,VALID,1.49375,
2010-10-15, 03:21:04,VALID,999.677,VALID,0,VALID,81.0723,VALID,0,VALID,24.3842,VALID,303,VALID,2.08945,
2010-10-15, 03:22:04,VALID,999.707,VALID,0,VALID,81.286,VALID,0,VALID,24.3842,VALID,257,VALID,1.67617,
2010-10-15, 03:23:04,VALID,999.671,VALID,0,VALID,81.347,VALID,0,VALID,24.3842,VALID,249,VALID,0.712891,
2010-10-15, 03:24:04,VALID,999.659,VALID,0,VALID,81.2555,VALID,0,VALID,24.3452,VALID,281,VALID,1.9168,
2010-10-15, 03:25:04,VALID,999.665,VALID,0,VALID,81.6369,VALID,0,VALID,24.3452,VALID,275,VALID,1.27227,
2010-10-15, 03:26:04,VALID,999.705,VALID,0,VALID,82.232,VALID,0,VALID,24.3062,VALID,231,VALID,2.24883,
2010-10-15, 03:27:04,VALID,999.708,VALID,0,VALID,82.6212,VALID,0,VALID,24.2866,VALID,301,VALID,0.870313,
2010-10-15, 03:28:04,VALID,999.769,VALID,0,VALID,82.7051,VALID,0,VALID,24.2263,VALID,216,VALID,0.876562,
2010-10-15, 03:29:04,VALID,999.848,VALID,0,VALID,82.7814,VALID,0,VALID,24.2086,VALID,239,VALID,0.609766,
2010-10-15, 03:30:04,VALID,999.883,VALID,0,VALID,83.1705,VALID,0,VALID,24.1891,VALID,300,VALID,1.48945,
2010-10-15, 03:31:04,VALID,999.888,VALID,0,VALID,83.2086,VALID,0,VALID,24.1287,VALID,277,VALID,1.5832,
2010-10-15, 03:32:04,VALID,999.923,VALID,0,VALID,83.4604,VALID,0,VALID,24.111,VALID,299,VALID,1.95625,
2010-10-15, 03:33:04,VALID,999.927,VALID,0,VALID,83.5291,VALID,0,VALID,24.072,VALID,311,VALID,1.84609,
2010-10-15, 03:34:04,VALID,999.955,VALID,0,VALID,83.674,VALID,0,VALID,24.0525,VALID,303,VALID,2.89297,
2010-10-15, 03:35:04,VALID,999.966,VALID,0,VALID,83.5749,VALID,0,VALID,24.0116,VALID,268,VALID,1.84883,
2010-10-15, 03:36:04,VALID,999.986,VALID,0,VALID,83.7809,VALID,0,VALID,24.0329,VALID,272,VALID,1.55938,
2010-10-15, 03:37:04,VALID,999.998,VALID,0,VALID,83.8037,VALID,0,VALID,24.0134,VALID,286,VALID,1.19609,
2010-10-15, 03:38:04,VALID,999.962,VALID,0,VALID,84.17,VALID,0,VALID,24.0134,VALID,241,VALID,0.825781,
2010-10-15, 03:39:04,VALID,999.981,VALID,0,VALID,84.2768,VALID,0,VALID,24.0134,VALID,266,VALID,0.820313,
2010-10-15, 03:40:04,VALID,1000.02,VALID,0,VALID,84.4065,VALID,0,VALID,23.9939,VALID,322,VALID,1.17305,
2010-10-15, 03:41:04,VALID,1000.1,VALID,0,VALID,84.5515,VALID,0,VALID,23.9744,VALID,298,VALID,1.06133,
2010-10-15, 03:42:04,VALID,1000.12,VALID,0,VALID,84.8948,VALID,0,VALID,23.9549,VALID,256,VALID,0.529688,
2010-10-15, 03:43:04,VALID,1000.1,VALID,0,VALID,85.1313,VALID,0,VALID,23.9549,VALID,293,VALID,0.886328,